period_start,C,m1,H,J0,J1,J2,J3,J4,J5,JA,JB,JC,JD,JJ,JK,JN,#
2018-03-24 00:00:49,0.36,15.07,0.00,23.34,27.06,30.18,14.06,49.32,1018.66,2021.99,785.47,1159.56,1313.90,600.22,596.61,49.88,0000 0000 0000 0000 000000
2018-03-24 00:05:50,0.33,15.09,0.00,23.37,27.07,30.19,14.04,49.36,1018.60,2021.99,784.23,1158.67,1312.93,600.25,596.72,49.93,0000 0000 0000 0000 000000
2018-03-24 00:10:52,0.37,15.11,0.00,23.38,27.07,30.16,13.95,49.27,1018.59,2021.99,783.35,1157.71,1311.72,599.87,596.30,49.98,0000 0000 0000 0000 000000
2018-03-24 00:15:53,0.46,15.13,0.00,23.39,27.07,30.16,13.96,49.38,1018.57,2021.98,781.91,1156.51,1310.44,599.94,596.44,50.03,0000 0000 0000 0000 000000
2018-03-24 00:20:54,0.45,15.15,0.00,23.41,27.10,30.21,13.85,49.35,1018.58,2021.98,780.53,1155.44,1309.15,599.86,596.21,50.08,0000 0000 0000 0000 000000
2018-03-24 00:25:55,0.46,15.17,0.00,23.43,27.10,30.19,14.02,49.37,1018.57,2021.97,779.11,1154.15,1307.67,599.76,596.00,50.13,0000 0000 0000 0000 000000
2018-03-24 00:30:57,0.61,15.20,0.00,23.45,27.12,30.19,14.01,49.35,1018.57,2021.96,777.42,1152.65,1306.00,599.96,596.26,50.18,0000 0000 0000 0000 000000
2018-03-24 00:35:58,0.54,15.23,0.00,23.47,27.12,30.24,14.03,49.40,1018.57,2021.94,775.66,1151.27,1304.40,600.02,596.32,50.24,0000 0000 0000 0000 000000
2018-03-24 00:41:00,0.43,15.25,0.00,23.48,27.15,30.22,13.99,49.27,1018.57,2021.71,774.20,1149.99,1302.83,599.77,595.97,50.29,0000 0000 0000 0000 000000
2018-03-24 00:46:01,0.49,15.28,0.00,23.49,27.16,30.21,13.94,49.21,1018.57,2021.45,772.64,1148.69,1301.43,599.90,596.09,50.34,0000 0000 0000 0000 000000
2018-03-24 00:51:02,0.37,15.30,0.00,23.50,27.18,30.25,13.96,49.26,1018.57,2021.22,771.36,1147.60,1300.09,599.72,595.78,50.39,0000 0000 0000 0000 000000
2018-03-24 00:56:04,0.41,15.32,0.00,23.52,27.20,30.26,14.00,49.27,1018.57,2021.07,769.99,1146.44,1298.82,600.38,596.49,50.44,0000 0000 0000 0000 000000
2018-03-24 01:01:05,0.39,15.34,0.00,23.53,27.21,30.29,13.93,49.18,1018.57,2021.03,768.80,1145.44,1297.68,599.87,596.07,50.49,0000 0000 0000 0000 000000
2018-03-24 01:06:06,0.36,15.36,0.00,23.55,27.23,30.29,13.97,49.34,1018.57,2021.03,767.76,1144.53,1296.60,599.88,595.95,50.54,0000 0000 0000 0000 000000
2018-03-24 01:11:07,0.40,15.38,0.00,23.58,27.25,30.28,14.00,49.30,1018.56,2021.00,766.61,1143.59,1295.50,599.99,595.91,50.59,0000 0000 0000 0000 000000
2018-03-24 01:16:09,0.35,15.40,0.00,23.61,27.26,30.32,13.88,49.38,1018.57,2021.00,765.56,1142.63,1294.40,599.73,595.76,50.64,0000 0000 0000 0000 000000
2018-03-24 01:21:10,0.37,15.42,0.00,23.63,27.28,30.34,13.98,49.25,1018.50,2021.00,764.41,1141.66,1293.30,599.81,595.59,50.69,0000 0000 0000 0000 000000
2018-03-24 01:26:11,0.37,15.44,0.00,23.66,27.30,30.34,13.92,49.24,1018.24,2021.00,763.18,1140.68,1292.18,599.76,595.42,50.74,0000 0000 0000 0000 000000
2018-03-24 01:31:13,0.35,15.45,0.00,23.69,27.32,30.36,13.90,49.14,1018.16,2020.99,762.04,1139.77,1291.09,599.77,595.37,50.79,0000 0000 0000 0000 000000
2018-03-24 01:36:14,0.45,15.48,0.00,23.73,27.33,30.36,13.94,49.22,1018.11,2020.98,760.78,1138.76,1289.89,600.27,595.74,50.84,0000 0000 0000 0000 000000
2018-03-24 01:41:15,0.41,15.50,0.00,23.75,27.35,30.41,13.94,49.13,1018.11,2020.97,759.57,1137.78,1288.76,600.13,595.56,50.89,0000 0000 0000 0000 000000
2018-03-24 01:46:16,0.41,15.52,0.00,23.77,27.37,30.42,13.96,49.28,1018.18,2020.95,758.37,1136.73,1287.61,600.03,595.50,50.94,0000 0000 0000 0000 000000
2018-03-24 01:51:18,0.37,15.54,0.00,23.79,27.39,30.42,13.92,49.26,1018.35,2020.79,757.07,1135.69,1286.41,599.86,595.25,50.99,0000 0000 0000 0000 000000
2018-03-24 01:56:19,0.39,15.56,0.00,23.81,27.41,30.44,13.99,49.27,1018.42,2020.57,755.82,1134.59,1285.26,600.04,595.54,51.05,0000 0000 0000 0000 000000
2018-03-24 02:01:20,0.32,15.57,0.00,23.83,27.43,30.47,13.93,49.39,1018.23,2020.23,754.73,1133.64,1284.03,599.84,595.19,51.10,0000 0000 0000 0000 000000
2018-03-24 02:06:21,0.42,15.59,0.00,23.87,27.46,30.49,13.92,49.37,1018.12,2020.13,753.50,1132.65,1282.95,599.86,595.01,51.15,0000 0000 0000 0000 000000
2018-03-24 02:11:23,0.35,15.61,0.00,23.88,27.48,30.55,14.00,49.53,1018.13,2020.05,752.49,1131.68,1281.83,599.97,595.18,51.20,0000 0000 0000 0000 000000
2018-03-24 02:16:24,0.36,15.63,0.00,23.92,27.51,30.52,13.99,49.47,1018.11,2020.00,751.32,1130.75,1280.79,599.81,594.90,51.25,0000 0000 0000 0000 000000
2018-03-24 02:21:25,0.35,15.65,0.00,23.98,27.53,30.55,13.88,49.49,1018.11,2020.00,750.39,1129.82,1279.70,599.99,594.93,51.30,0000 0000 0000 0000 000000
2018-03-24 02:26:26,0.35,15.67,0.00,24.01,27.56,30.57,13.96,49.43,1018.16,2020.00,749.38,1128.88,1278.67,599.94,594.91,51.35,0000 0000 0000 0000 000000
2018-03-24 02:31:28,0.39,15.69,0.00,24.02,27.59,30.58,13.85,49.36,1018.12,2020.00,748.12,1127.89,1277.54,599.54,594.46,51.40,0000 0000 0000 0000 000000
2018-03-24 02:36:29,0.35,15.71,0.00,24.05,27.61,30.61,13.89,49.42,1018.15,2019.99,747.11,1126.89,1276.39,599.87,594.72,51.45,0000 0000 0000 0000 000000
2018-03-24 02:41:31,0.37,15.73,0.00,24.08,27.64,30.64,13.95,49.34,1018.16,2019.89,746.00,1125.87,1275.23,599.95,594.80,51.50,0000 0000 0000 0000 000000
2018-03-24 02:46:32,0.53,15.75,0.00,24.13,27.67,30.69,13.90,49.35,1018.13,2019.59,744.59,1124.68,1273.88,600.00,594.61,51.55,0000 0000 0000 0000 000000
2018-03-24 02:51:33,0.45,15.77,0.00,24.16,27.70,30.68,13.94,49.32,1018.13,2019.10,742.94,1123.40,1272.39,600.31,594.69,51.60,0000 0000 0000 0000 000000
2018-03-24 02:56:35,0.49,15.80,0.00,24.20,27.72,30.70,13.89,49.32,1018.09,2019.03,741.45,1122.16,1270.93,600.32,594.83,51.65,0000 0000 0000 0000 000000
2018-03-24 03:01:36,0.57,15.82,0.00,24.22,27.75,30.73,13.95,49.31,1018.08,2019.01,739.78,1120.90,1269.55,600.16,594.58,51.70,0000 0000 0000 0000 000000
2018-03-24 03:06:37,0.49,15.85,0.00,24.26,27.77,30.75,13.85,49.35,1018.09,2019.00,738.21,1119.67,1268.12,599.98,594.31,51.75,0000 0000 0000 0000 000000
2018-03-24 03:11:39,0.53,15.88,0.00,24.30,27.80,30.76,13.91,49.33,1018.08,2019.00,736.80,1118.47,1266.73,599.89,594.20,51.80,0000 0000 0000 0000 000000
2018-03-24 03:16:40,0.47,15.90,0.00,24.33,27.83,30.79,13.96,49.42,1018.08,2018.98,735.38,1117.29,1265.40,600.19,594.43,51.85,0000 0000 0000 0000 000000
2018-03-24 03:21:42,0.50,15.93,0.00,24.36,27.86,30.84,13.91,49.52,1018.08,2018.96,733.81,1116.01,1263.96,600.02,594.12,51.90,0000 0000 0000 0000 000000
2018-03-24 03:26:43,0.52,15.96,0.00,24.40,27.88,30.88,13.99,49.28,1018.08,2018.78,732.28,1114.77,1262.57,600.15,594.11,51.95,0000 0000 0000 0000 000000
2018-03-24 03:31:44,0.51,15.98,0.93,24.43,27.91,30.88,13.88,49.27,1018.08,2018.18,730.53,1113.43,1260.93,599.80,593.90,52.01,0000 0000 0000 0000 000000
2018-03-24 03:36:46,0.55,16.01,1.00,24.45,27.94,30.89,13.91,49.37,1018.08,2018.03,728.78,1112.09,1259.50,600.01,594.01,52.06,0000 0000 0000 0000 000000
2018-03-24 03:41:47,0.55,16.04,1.00,24.50,27.97,31.01,13.88,49.29,1018.08,2018.01,727.17,1110.80,1258.01,599.94,593.82,52.11,0000 0000 0000 0000 000000
2018-03-24 03:46:49,0.51,16.06,1.00,24.63,27.99,31.15,13.94,49.40,1018.08,2018.00,725.71,1109.71,1256.74,600.31,593.93,52.16,0000 0000 0000 0000 000000
2018-03-24 03:51:50,0.44,16.09,1.00,24.73,28.00,31.18,13.96,49.53,1018.06,2018.00,724.42,1108.67,1255.58,599.89,593.29,52.21,0000 0000 0000 0000 000000
2018-03-24 03:56:51,0.46,16.11,1.00,24.80,28.01,31.19,13.89,49.59,1018.00,2018.00,722.99,1107.57,1254.35,599.93,593.18,52.26,0000 0000 0000 0000 000000
2018-03-24 04:01:53,0.47,16.13,1.00,24.85,28.02,31.10,13.81,49.52,1017.83,2018.00,721.68,1106.54,1253.18,599.92,593.13,52.31,0000 0000 0000 0000 000000
2018-03-24 04:06:54,0.44,16.16,1.00,24.88,28.01,30.99,13.84,49.73,1017.62,2018.00,720.44,1105.52,1252.04,599.72,592.61,52.36,0000 0000 0000 0000 000000
2018-03-24 04:11:55,0.33,16.18,1.00,24.90,28.00,30.88,13.84,49.67,1017.61,2018.00,719.43,1104.73,1251.00,599.92,592.69,52.41,0000 0000 0000 0000 000000
2018-03-24 04:16:57,0.36,16.19,1.00,24.93,28.00,30.83,13.92,49.62,1017.61,2018.00,718.50,1103.82,1249.96,599.89,592.64,52.46,0000 0000 0000 0000 000000
2018-03-24 04:21:58,0.39,16.21,1.00,24.95,27.98,30.80,13.81,49.67,1017.61,2018.00,717.43,1102.89,1248.92,600.11,592.78,52.51,0000 0000 0000 0000 000000
2018-03-24 04:26:59,0.36,16.23,1.00,24.95,27.97,30.74,13.83,49.62,1017.61,2018.00,716.33,1102.00,1247.93,599.48,592.21,52.56,0000 0000 0000 0000 000000
2018-03-24 04:32:01,0.40,16.25,0.03,24.96,27.95,30.68,13.91,49.64,1017.60,2018.00,715.31,1101.10,1246.85,599.89,592.71,52.61,0000 0000 0000 0000 000000
2018-03-24 04:37:02,0.40,16.27,0.00,25.00,27.93,30.66,13.88,49.71,1017.60,2018.00,714.06,1100.22,1245.80,600.18,592.83,52.66,0000 0000 0000 0000 000000
2018-03-24 04:42:03,0.37,16.29,0.00,25.02,27.91,30.61,13.82,49.77,1017.60,2018.01,712.99,1099.37,1244.82,599.72,592.26,52.71,0000 0000 0000 0000 000000
2018-03-24 04:47:04,0.32,16.31,0.00,25.05,27.89,30.61,13.88,49.76,1017.60,2018.02,712.07,1098.63,1243.93,600.05,592.51,52.76,0000 0000 0000 0000 000000
2018-03-24 04:52:06,0.35,16.33,0.00,25.06,27.87,30.58,13.85,49.78,1017.59,2018.01,711.06,1097.80,1242.98,600.04,592.49,52.81,0000 0000 0000 0000 000000
2018-03-24 04:57:08,0.41,16.35,0.00,25.08,27.85,30.57,13.77,49.66,1017.59,2018.02,709.89,1096.93,1242.00,599.70,592.13,52.86,0000 0000 0000 0000 000000
2018-03-24 05:02:09,0.46,16.37,0.00,25.11,27.82,30.52,13.85,49.68,1017.56,2018.08,708.61,1096.06,1241.03,599.87,592.29,52.91,0000 0000 0000 0000 000000
2018-03-24 05:07:10,0.32,16.39,0.00,25.14,27.80,30.33,13.83,49.63,1017.58,2018.26,707.83,1095.23,1240.10,600.04,592.39,52.97,0000 0000 0000 0000 000000
2018-03-24 05:12:12,0.40,16.41,0.00,25.16,27.79,30.27,13.76,49.58,1017.57,2018.38,706.89,1094.47,1239.16,599.36,591.80,53.02,0000 0000 0000 0000 000000
2018-03-24 05:17:13,0.35,16.43,0.00,25.18,27.77,30.36,13.86,49.59,1017.52,2018.59,705.95,1093.73,1238.21,599.89,592.00,53.07,0000 0000 0000 0000 000000
2018-03-24 05:22:15,0.36,16.45,0.00,25.21,27.75,30.35,13.77,49.65,1017.45,2018.72,704.92,1092.93,1237.33,599.56,591.75,53.12,0000 0000 0000 0000 000000
2018-03-24 05:27:16,0.40,16.47,0.00,25.21,27.75,30.30,13.80,49.58,1017.42,2018.91,703.95,1092.07,1236.41,599.99,592.02,53.17,0000 0000 0000 0000 000000
2018-03-24 05:32:18,0.36,16.49,0.00,25.23,27.72,30.33,13.83,49.73,1017.32,2018.96,703.06,1091.27,1235.48,599.85,591.76,53.22,0000 0000 0000 0000 000000
2018-03-24 05:37:19,0.38,16.50,0.00,25.25,27.72,30.35,13.76,49.59,1017.24,2018.96,702.13,1090.47,1234.50,599.70,591.67,53.27,0000 0000 0000 0000 000000
2018-03-24 05:42:21,0.37,16.52,0.00,25.28,27.70,30.37,13.86,49.64,1017.21,2018.98,701.04,1089.65,1233.56,599.80,591.52,53.32,0000 0000 0000 0000 000000
2018-03-24 05:47:22,0.32,16.54,0.00,25.30,27.70,30.41,13.81,49.58,1017.27,2018.99,700.03,1088.90,1232.63,600.19,591.99,53.37,0000 0000 0000 0000 000000
2018-03-24 05:52:24,0.36,16.56,0.00,25.32,27.69,30.43,13.83,49.65,1017.27,2018.99,699.06,1088.05,1231.76,600.12,591.92,53.42,0000 0000 0000 0000 000000
2018-03-24 05:57:24,0.39,16.58,0.00,25.33,27.67,30.42,13.82,49.62,1017.23,2018.99,698.02,1087.20,1230.82,599.79,591.54,53.47,0000 0000 0000 0000 000000
2018-03-24 06:02:26,0.48,7.19,0.00,25.37,27.69,30.49,12.21,43.77,1017.13,2022.88,2265.09,2221.28,2545.31,534.97,527.60,0.02,0000 0000 0000 0000 000002
2018-03-24 06:07:27,0.53,0.00,0.00,25.38,27.69,30.46,13.80,48.97,1017.12,2025.64,3455.03,3083.80,3546.57,599.94,591.35,0.04,0000 0000 0000 0000 000000
2018-03-24 06:12:28,0.52,0.02,0.00,25.40,27.67,30.50,13.85,48.81,1017.11,2025.43,3446.53,3078.32,3540.08,600.36,591.89,0.09,0000 0000 0000 0000 000000
2018-03-24 06:17:29,0.49,0.04,0.00,25.43,27.67,30.49,13.84,48.88,1017.11,2025.48,3438.44,3072.94,3533.61,600.07,591.40,0.14,0000 0000 0000 0000 000000
2018-03-24 06:22:31,0.45,0.05,0.00,25.43,27.67,30.51,13.71,48.59,1017.11,2025.38,3430.42,3067.60,3527.10,599.83,591.46,0.19,0000 0000 0000 0000 000000
2018-03-24 06:27:32,0.40,0.07,0.00,25.44,27.67,30.50,13.90,48.71,1017.10,2025.25,3422.58,3062.26,3520.76,600.00,591.42,0.24,0000 0000 0000 0000 000000
2018-03-24 06:32:34,0.36,0.09,0.00,25.48,27.67,30.50,13.85,48.67,1016.89,2025.25,3414.74,3056.95,3514.61,600.21,591.46,0.29,0000 0000 0000 0000 000000
2018-03-24 06:37:35,0.34,0.10,0.00,25.48,27.67,30.49,13.68,48.53,1016.79,2025.11,3406.99,3051.62,3508.39,599.76,590.87,0.34,0000 0000 0000 0000 000000
2018-03-24 06:42:37,0.34,0.12,0.00,25.50,27.67,30.52,13.85,48.45,1017.02,2025.08,3399.37,3046.39,3502.31,600.02,591.41,0.39,0000 0000 0000 0000 000000
2018-03-24 06:47:38,0.35,0.14,0.00,25.51,27.67,30.54,13.79,48.38,1017.07,2025.09,3391.77,3041.22,3496.28,600.18,591.49,0.44,0000 0000 0000 0000 000000
2018-03-24 06:52:39,0.34,0.16,0.00,25.53,27.67,30.55,13.84,48.27,1016.95,2025.05,3384.08,3035.89,3490.20,600.04,591.23,0.49,0000 0000 0000 0000 000000
2018-03-24 06:57:40,0.34,0.17,0.00,25.56,27.67,30.51,13.81,48.17,1016.99,2025.09,3376.57,3030.72,3484.23,600.28,591.43,0.54,0000 0000 0000 0000 000000
2018-03-24 07:02:41,0.34,0.19,0.00,25.58,27.67,30.43,13.77,47.95,1016.93,2025.14,3369.34,3025.81,3478.59,600.12,591.22,0.59,0000 0000 0000 0000 000000
2018-03-24 07:07:43,0.32,0.21,0.00,25.58,27.67,30.44,13.74,47.96,1016.76,2025.14,3362.25,3020.95,3472.94,599.99,590.94,0.64,0000 0000 0000 0000 000000
2018-03-24 07:12:44,0.32,0.22,0.00,25.61,27.67,30.46,13.75,47.97,1016.71,2025.14,3355.27,3016.11,3467.31,600.21,591.08,0.69,0000 0000 0000 0000 000000
2018-03-24 07:17:45,0.31,0.24,0.00,25.62,27.67,30.51,13.74,47.92,1016.68,2025.07,3348.29,3011.28,3461.64,600.05,590.89,0.74,0000 0000 0000 0000 000000
2018-03-24 07:22:47,0.32,0.26,0.00,25.63,27.67,30.48,13.77,48.01,1016.64,2025.08,3341.44,3006.66,3456.15,599.70,590.40,0.79,0000 0000 0000 0000 000000
2018-03-24 07:27:48,0.32,0.27,0.00,25.64,27.67,30.47,13.73,47.89,1016.64,2025.04,3334.40,3001.86,3450.57,599.77,590.68,0.84,0000 0000 0000 0000 000000
2018-03-24 07:32:49,0.33,0.29,0.00,25.65,27.67,30.47,13.71,47.87,1016.64,2025.03,3327.48,2996.97,3444.78,599.93,590.70,0.89,0000 0000 0000 0000 000000
2018-03-24 07:37:50,0.33,0.31,0.00,25.67,27.67,30.46,13.65,47.86,1016.66,2025.03,3320.53,2992.15,3439.25,599.73,590.48,0.94,0000 0000 0000 0000 000000
2018-03-24 07:42:51,0.32,0.32,0.00,25.68,27.67,30.49,13.77,47.88,1016.64,2025.02,3313.46,2987.29,3433.65,600.02,590.71,0.99,0000 0000 0000 0000 000000
2018-03-24 07:47:52,0.32,0.34,0.00,25.70,27.67,30.51,13.78,47.90,1016.62,2025.01,3306.41,2982.46,3428.13,600.19,590.92,1.04,0000 0000 0000 0000 000000
2018-03-24 07:52:54,0.32,0.36,0.00,25.71,27.67,30.51,13.73,47.83,1016.62,2025.02,3299.64,2977.71,3422.60,599.94,590.61,1.09,0000 0000 0000 0000 000000
2018-03-24 07:57:55,0.32,0.37,0.00,25.72,27.67,30.54,13.64,47.84,1016.62,2025.01,3292.82,2972.90,3417.03,599.80,590.53,1.14,0000 0000 0000 0000 000000
2018-03-24 08:02:57,0.32,0.39,0.00,25.74,27.67,30.54,13.68,47.87,1016.62,2025.01,3286.11,2968.18,3411.43,599.84,590.57,1.19,0000 0000 0000 0000 000000
2018-03-24 08:07:58,0.33,0.41,0.00,25.71,27.67,30.60,13.79,47.91,1016.62,2025.01,3279.23,2963.46,3405.98,599.95,590.67,1.24,0000 0000 0000 0000 000000
2018-03-24 08:12:58,0.32,0.42,0.00,25.44,27.66,30.59,13.71,47.95,1016.62,2025.00,3272.28,2958.70,3400.52,599.37,590.61,1.29,0000 0000 0000 0000 000000
2018-03-24 08:18:00,0.33,0.44,0.00,25.29,27.65,30.57,13.81,47.90,1016.62,2025.00,3265.38,2953.94,3395.12,599.91,591.38,1.34,0000 0000 0000 0000 000000
2018-03-24 08:23:01,0.31,0.46,0.00,25.22,27.62,30.51,13.84,47.92,1016.62,2025.01,3259.10,2949.38,3389.76,600.01,591.62,1.39,0000 0000 0000 0000 000000
2018-03-24 08:28:02,0.31,0.47,0.00,25.17,27.62,30.46,13.83,47.92,1016.62,2025.00,3252.47,2944.83,3384.50,600.18,591.85,1.44,0000 0000 0000 0000 000000
2018-03-24 08:33:03,0.31,0.49,0.00,25.15,27.60,30.45,13.82,47.93,1016.62,2025.01,3245.89,2940.41,3379.36,599.62,591.29,1.49,0000 0000 0000 0000 000000
2018-03-24 08:38:04,0.31,0.50,0.00,25.14,27.58,30.44,13.76,47.82,1016.61,2025.05,3239.24,2935.86,3374.27,599.71,591.47,1.54,0000 0000 0000 0000 000000
2018-03-24 08:43:05,0.35,0.52,0.00,25.11,27.57,30.46,13.77,47.75,1016.61,2025.32,3232.71,2931.32,3368.99,600.00,591.77,1.59,0000 0000 0000 0000 000000
2018-03-24 08:48:07,0.31,0.54,0.00,25.13,27.55,30.51,13.79,47.86,1016.51,2025.48,3226.26,2926.83,3363.74,599.99,591.77,1.64,0000 0000 0000 0000 000000
2018-03-24 08:53:08,0.33,0.55,0.00,25.14,27.55,30.48,13.80,47.81,1016.43,2025.59,3219.83,2922.30,3358.38,599.99,591.62,1.69,0000 0000 0000 0000 000000
2018-03-24 08:58:09,0.29,0.57,0.00,25.13,27.53,30.47,13.80,47.78,1016.41,2025.40,3213.33,2917.75,3353.08,600.04,591.70,1.75,0000 0000 0000 0000 000000
2018-03-24 09:03:10,0.34,0.58,0.00,25.11,27.52,30.44,13.81,47.71,1016.52,2025.59,3206.81,2913.27,3347.92,600.32,592.11,1.80,0000 0000 0000 0000 000000
2018-03-24 09:08:12,0.33,0.60,0.00,25.08,27.51,30.41,13.74,47.71,1016.54,2025.78,3200.32,2908.78,3342.80,599.80,591.75,1.85,0000 0000 0000 0000 000000
2018-03-24 09:13:13,0.32,0.62,0.00,25.05,27.50,30.40,13.81,47.80,1016.54,2025.81,3193.92,2904.25,3337.63,600.13,592.03,1.90,0000 0000 0000 0000 000000
2018-03-24 09:18:14,0.31,0.63,0.00,24.98,27.49,30.40,13.75,47.83,1016.28,2025.84,3187.86,2899.87,3332.32,600.00,591.88,1.95,0000 0000 0000 0000 000000
2018-03-24 09:23:16,0.31,0.65,0.00,24.93,27.47,30.39,13.73,47.74,1016.19,2025.88,3181.41,2895.50,3327.34,599.90,591.84,2.00,0000 0000 0000 0000 000000
2018-03-24 09:28:17,0.32,0.67,0.00,24.88,27.45,30.38,13.77,47.71,1016.30,2025.96,3174.92,2891.14,3322.58,600.07,592.20,2.05,0000 0000 0000 0000 000000
2018-03-24 09:33:18,0.31,0.68,0.00,24.86,27.43,30.37,13.82,47.82,1016.17,2025.98,3168.60,2886.78,3317.53,600.13,592.19,2.10,0000 0000 0000 0000 000000
2018-03-24 09:38:20,0.29,0.70,0.00,24.82,27.41,30.36,13.74,47.69,1016.14,2025.97,3162.71,2882.63,3312.51,599.73,591.85,2.15,0000 0000 0000 0000 000000
2018-03-24 09:43:21,0.29,0.71,0.00,24.81,27.40,30.36,13.77,47.86,1016.13,2025.99,3156.65,2878.57,3307.69,599.82,591.87,2.20,0000 0000 0000 0000 000000
2018-03-24 09:48:22,0.31,0.73,0.00,24.76,27.37,30.33,13.86,47.68,1016.13,2025.99,3150.53,2874.30,3302.56,600.12,592.24,2.25,0000 0000 0000 0000 000000
2018-03-24 09:53:24,0.32,0.74,0.00,24.72,27.35,30.32,13.80,47.88,1016.13,2025.99,3144.07,2869.91,3297.50,599.89,592.20,2.30,0000 0000 0000 0000 000000
2018-03-24 09:58:25,0.31,0.76,0.00,24.73,27.32,30.31,13.85,47.83,1016.12,2025.99,3137.52,2865.52,3292.60,600.18,592.46,2.35,0000 0000 0000 0000 000000
2018-03-24 10:03:26,0.29,0.78,0.00,24.69,27.30,30.34,13.84,47.75,1016.12,2026.00,3131.88,2861.37,3287.66,600.28,592.71,2.40,0000 0000 0000 0000 000000
2018-03-24 10:08:27,0.30,0.79,0.00,24.67,27.28,30.31,13.79,47.73,1016.09,2026.00,3126.10,2857.21,3282.71,599.61,592.04,2.45,0000 0000 0000 0000 000000
2018-03-24 10:13:29,0.28,0.80,0.00,24.64,27.26,30.25,13.72,47.82,1016.11,2026.00,3120.39,2853.24,3278.05,599.65,592.11,2.50,0000 0000 0000 0000 000000
2018-03-24 10:18:30,0.29,0.82,0.00,24.61,27.23,30.30,13.78,47.78,1016.04,2026.01,3114.52,2849.27,3273.59,599.95,592.43,2.55,0000 0000 0000 0000 000000
2018-03-24 10:23:31,0.29,0.83,0.00,24.57,27.21,30.27,13.84,47.84,1015.89,2026.04,3108.90,2845.22,3268.77,599.74,592.20,2.60,0000 0000 0000 0000 000000
2018-03-24 10:28:32,0.33,0.85,0.00,24.56,27.18,30.23,13.83,47.83,1015.71,2026.12,3102.61,2840.99,3264.06,599.92,592.31,2.65,0000 0000 0000 0000 000000
2018-03-24 10:33:33,0.36,0.87,0.00,24.53,27.15,30.20,13.79,47.96,1015.71,2026.43,3095.94,2836.61,3259.31,599.77,592.24,2.70,0000 0000 0000 0000 000000
2018-03-24 10:38:35,0.36,0.89,0.00,24.49,27.13,30.17,13.85,47.88,1015.65,2026.85,3089.45,2832.15,3254.22,600.03,592.42,2.75,0000 0000 0000 0000 000000
2018-03-24 10:43:36,0.35,0.90,0.00,24.45,27.10,30.21,13.79,47.97,1015.64,2026.94,3082.78,2827.55,3248.88,599.76,592.31,2.80,0000 0000 0000 0000 000000
2018-03-24 10:48:37,0.33,0.92,0.00,24.42,27.07,30.19,13.87,47.99,1015.64,2026.99,3075.98,2823.00,3243.71,600.00,592.55,2.85,0000 0000 0000 0000 000000
2018-03-24 10:53:39,0.35,0.94,0.00,24.41,27.05,30.13,13.79,47.98,1015.64,2026.99,3069.13,2818.28,3238.36,600.06,592.76,2.90,0000 0000 0000 0000 000000
2018-03-24 10:58:40,0.34,0.96,0.00,24.38,27.02,30.13,13.76,48.01,1015.64,2026.99,3062.29,2813.69,3232.95,599.90,592.47,2.95,0000 0000 0000 0000 000000
2018-03-24 11:03:41,0.34,0.97,0.00,24.37,27.00,30.10,13.77,47.91,1015.59,2027.00,3055.67,2809.10,3227.56,599.91,592.57,3.00,0000 0000 0000 0000 000000
2018-03-24 11:08:43,0.34,0.99,0.00,24.32,26.97,30.11,13.86,47.87,1015.58,2027.01,3049.21,2804.60,3222.23,600.25,593.04,3.05,0000 0000 0000 0000 000000
2018-03-24 11:13:44,0.33,1.01,0.00,24.29,26.95,30.07,13.75,47.88,1015.51,2027.04,3042.68,2800.21,3217.25,600.03,592.83,3.10,0000 0000 0000 0000 000000
2018-03-24 11:18:45,0.34,1.02,0.00,24.28,26.92,30.06,13.82,47.84,1015.27,2027.20,3036.41,2795.86,3212.22,599.98,592.59,3.15,0000 0000 0000 0000 000000
2018-03-24 11:23:47,0.35,1.04,0.00,24.40,26.90,30.00,13.77,47.77,1015.19,2027.32,3030.08,2791.49,3207.03,599.94,592.35,3.20,0000 0000 0000 0000 000000
2018-03-24 11:28:48,0.36,1.06,0.00,24.46,26.88,29.95,13.82,47.85,1015.16,2027.72,3023.81,2787.14,3202.09,600.14,592.28,3.25,0000 0000 0000 0000 000000
2018-03-24 11:33:50,0.31,1.08,0.00,24.56,26.87,29.91,13.81,47.87,1015.15,2027.88,3018.02,2782.94,3197.16,599.80,591.86,3.30,0000 0000 0000 0000 000000
2018-03-24 11:38:51,0.31,1.09,0.00,24.63,26.87,29.91,13.77,47.73,1015.15,2027.86,3012.09,2778.80,3192.42,600.01,591.93,3.35,0000 0000 0000 0000 000000
2018-03-24 11:43:53,0.32,1.11,0.00,24.68,26.86,29.90,13.74,47.81,1015.15,2027.89,3006.06,2774.62,3187.69,600.35,592.16,3.40,0000 0000 0000 0000 000000
2018-03-24 11:48:54,0.31,1.13,0.00,24.73,26.85,29.94,13.75,47.80,1015.07,2027.90,3000.10,2770.49,3182.94,599.99,591.67,3.45,0000 0000 0000 0000 000000
2018-03-24 11:53:56,0.30,1.14,0.00,24.76,26.85,29.92,13.85,47.82,1014.84,2027.86,2994.16,2766.37,3178.23,600.00,591.48,3.50,0000 0000 0000 0000 000000
2018-03-24 11:58:57,0.29,1.16,0.00,24.79,26.85,29.93,13.75,47.71,1014.70,2027.81,2988.48,2762.44,3173.63,600.04,591.21,3.55,0000 0000 0000 0000 000000
2018-03-24 12:03:58,0.29,1.17,0.00,24.83,26.85,29.93,13.80,47.71,1014.68,2027.80,2982.87,2758.51,3169.16,600.30,591.37,3.60,0000 0000 0000 0000 000000
2018-03-24 12:08:59,0.27,1.19,0.00,24.84,26.85,29.93,13.74,47.65,1014.66,2027.70,2977.26,2754.66,3164.67,599.97,591.19,3.65,0000 0000 0000 0000 000000
2018-03-24 12:14:01,0.29,1.20,0.00,24.84,26.85,29.93,13.78,47.65,1014.66,2027.66,2971.82,2751.04,3160.35,600.02,591.08,3.70,0000 0000 0000 0000 000000
2018-03-24 12:19:02,0.29,1.21,0.00,24.84,26.85,29.94,13.76,47.62,1014.66,2027.80,2966.50,2747.48,3156.22,600.26,591.54,3.75,0000 0000 0000 0000 000000
2018-03-24 12:24:04,0.26,1.23,0.00,24.85,26.85,29.93,13.84,47.71,1014.66,2027.78,2961.41,2743.96,3152.12,600.00,591.19,3.80,0000 0000 0000 0000 000000
2018-03-24 12:29:05,0.26,1.24,0.00,24.83,26.85,29.96,13.75,47.80,1014.66,2027.71,2956.23,2740.40,3148.13,599.76,590.94,3.85,0000 0000 0000 0000 000000
2018-03-24 12:34:06,0.27,1.26,0.00,24.83,26.85,29.95,13.84,47.77,1014.64,2027.89,2951.38,2737.07,3144.22,600.30,591.60,3.90,0000 0000 0000 0000 000000
2018-03-24 12:39:07,0.25,1.27,0.00,24.81,26.85,29.97,13.79,47.71,1014.47,2027.90,2946.73,2733.84,3140.52,600.25,591.38,3.95,0000 0000 0000 0000 000000
2018-03-24 12:44:09,0.23,1.28,0.00,24.79,26.85,29.98,13.65,47.74,1014.29,2027.95,2942.39,2730.81,3137.05,599.51,590.62,4.00,0000 0000 0000 0000 000000
2018-03-24 12:49:10,0.23,1.29,0.00,24.76,26.85,29.98,13.84,47.78,1014.20,2027.95,2938.15,2727.84,3133.76,600.38,591.49,4.06,0000 0000 0000 0000 000000
2018-03-24 12:54:12,0.25,1.31,0.00,24.75,26.85,30.00,13.72,47.73,1014.19,2027.97,2933.56,2724.74,3130.30,599.97,591.04,4.11,0000 0000 0000 0000 000000